Location: Meinert
(37.9441°N, 122.0275°W)
Time: 19:50:58
(UTC+00:00)

Cosmos 1626 - Pass Details

Date: 18 April 2024
Orbit: 408 x 412 km, 82.5° (Epoch: 22 May)

Event Time Altitude Azimuth Distance (km) Brightness Sun altitude
Exits shadow 12:39:25 10° 281° (W) 1,498 4.0 -9.9°
Maximum altitude 12:39:48 11° 288° (WNW) 1,490 4.1 -9.8°
Drops below altitude 10° 12:40:29 10° 299° (WNW) 1,521 4.2 -9.7°
Sets 12:44:09 0° 342° (NNW) 2,401 5.6 -9.0°
